Terug naar catalogus

DELTA 1 DEB

ActiefSSO
NORAD 12255·DEBRIS·🇺🇸 United States

Gelanceerd Mar 5, 1978 vanaf Vandenberg Space Force Base

Loading…

Volgende Passages (komende 24 uur)

TLE

VersSource: Space-Track

Epoch: Sep 13, 2026, 14:05 UTC

1 12255U 78026CY  26256.58730850 -.00000061  00000-0 -10923-4 0  9993
2 12255  98.9577 198.1815 0019706 135.6599 224.6149 14.02765135699484

Volg DELTA 1 DEB in realtime met AllMySat

Download on the App Store